Lid_Strength_Index
2 2 2 3 3 4 4 3 3 2 2 2 2 2 1 1 1 4 6 5 3 1 1 4 5 6 6 7 7 8 10 11 11 11 10 9 9 8 8 9 8 7 8 7 6
1 1 1 2 2 3 3 3 3 3 2 2 2 2 1 1 3 5 3 2 2 1 5 6 7 7 7 8 8 8 10 10 10 10 10 9 9 9 9 9 9 8 7 7 7
0 1 1 1 1 2 3 3 3 3 3 2 2 2 2 2 6 7 2 2 2 2 5 5 6 7 9 8 9 10 11 11 10 9 9 10 10 9 9 10 8 8 7 7 7
1 0 0 1 1 1 1 2 3 3 3 3 2 2 1 3 11 5 2 2 1 3 5 6 7 8 9 10 9 11 10 10 10 9 9 10 9 10 9 8 8 7 7 7 8
1 2 1 0 1 1 1 1 2 3 3 3 3 2 3 7 8 5 2 3 4 4 6 7 8 8 10 9 10 11 10 10 9 9 9 9 10 10 9 8 7 8 8 8 7
1 0 2 2 0 1 1 1 1 1 2 3 3 3 5 11 5 5 5 4 5 5 6 6 7 7 9 9 10 10 10 10 10 10 10 11 10 11 9 9 9 9 8 7 7
3 2 0 2 2 0 1 1 1 1 1 2 3 5 7 9 5 5 5 5 5 5 7 6 6 8 8 10 9 10 11 10 10 10 11 11 11 12 9 10 10 9 8 8 8
4 3 2 1 1 2 0 1 1 1 1 2 3 6 11 6 5 6 5 5 4 5 5 5 5 7 8 9 10 11 12 12 11 11 10 11 11 10 10 10 9 9 9 8 8
4 4 4 3 2 1 2 2 1 2 2 3 5 7 12 5 7 6 5 6 6 6 6 6 6 8 9 11 12 12 11 13 12 10 11 12 11 9 10 10 10 9 9 9 8
5 5 4 4 3 2 1 2 3 3 4 4 5 10 9 9 7 7 6 5 7 7 8 8 9 10 10 11 14 12 12 13 13 12 12 12 12 9 9 9 10 9 9 9 8
6 5 5 4 4 3 3 5 9 10 7 11 10 11 9 7 5 7 6 7 7 9 11 10 12 12 11 11 12 12 13 13 12 12 14 12 12 11 9 10 10 10 9 9 9
4 5 5 5 4 2 4 6 7 9 12 10 9 10 7 6 9 7 5 8 10 12 11 12 14 11 12 12 12 13 13 13 12 14 14 13 13 11 11 11 11 11 10 10 9
3 5 5 5 4 3 5 5 8 9 13 12 12 11 9 7 9 9 6 8 10 12 12 13 12 12 13 13 14 13 14 14 14 13 14 15 11 11 12 12 11 10 10 10 10
4 4 5 6 5 6 6 5 6 7 12 11 13 12 10 8 10 7 6 8 10 11 11 12 11 13 13 13 12 14 13 14 15 14 15 14 18 14 13 12 12 11 11 10 10
4 4 4 6 8 7 7 5 6 6 20 11 13 9 10 12 10 10 7 9 11 12 11 12 12 13 14 13 13 14 14 14 15 15 16 16 16 14 14 13 12 11 11 11 10
4 4 4 5 8 6 6 6 6 15 20 14 13 13 12 12 12 10 10 9 10 13 13 13 12 12 13 14 14 13 15 15 15 16 17 18 17 15 12 13 13 12 11 11 11
4 4 5 5 6 5 6 8 15 18 12 15 15 13 13 14 13 13 13 14 14 16 16 15 14 13 12 14 13 14 15 17 19 18 17 18 18 13 12 13 13 11 11 11 11
4 4 5 5 2 3 5 13 18 14 13 13 14 14 15 14 13 13 14 15 14 15 16 17 18 15 13 13 14 15 15 16 21 19 18 18 18 13 13 13 12 12 10 11 12
4 5 5 3 3 3 7 15 15 13 11 14 14 15 16 15 14 14 14 14 14 14 16 18 18 15 15 14 14 16 17 15 18 21 19 16 15 13 14 14 13 12 12 11 11
6 7 7 2 2 4 10 13 13 10 12 13 13 12 16 16 15 15 15 13 13 13 13 15 18 16 15 14 14 15 15 18 17 19 20 17 18 14 14 14 13 12 12 11 11
7 10 5 3 2 7 13 12 11 8 9 12 13 13 13 15 14 15 15 13 12 13 12 13 14 17 15 16 16 17 17 17 16 17 18 19 15 13 14 14 13 12 11 11 11
8 14 5 3 9 10 11 10 8 9 7 10 11 12 13 14 15 14 14 14 12 12 15 13 14 17 16 15 15 15 15 15 16 19 18 19 15 13 14 14 14 13 12 11 11
11 11 6 5 12 11 10 11 9 9 9 10 11 11 11 14 15 13 13 12 12 13 14 13 15 18 18 16 16 16 15 15 16 16 19 18 15 14 14 14 13 13 12 12 12
10 14 11 8 10 12 12 11 11 8 9 10 10 9 12 14 13 13 13 13 12 12 11 12 15 15 16 15 15 18 16 15 15 17 16 17 14 13 13 14 13 13 12 12 12
10 13 12 15 13 13 12 12 13 14 12 13 12 15 15 14 13 14 13 13 12 11 12 13 16 16 15 15 16 16 16 16 16 15 16 14 15 13 12 13 12 11 12 13 13
10 11 11 12 12 13 13 14 14 13 13 15 17 15 14 14 16 15 13 13 12 13 13 13 16 17 18 16 16 18 15 15 15 15 14 15 16 12 11 11 12 12 12 13 12
6 6 9 13 12 14 14 14 14 12 12 13 15 15 14 16 14 14 13 12 11 13 14 15 16 16 17 18 17 17 16 16 15 14 14 16 13 11 11 12 12 11 12 12 12